Weather History for Mosby, MO

Change the Weather History Date:

Wednesday, October 23, 2013

  Actual Average (KMKC) Record (KMKC)
Temperature  
Mean Temperature 40 °F -  
Max Temperature 50 °F 63 °F 79 °F (2012)
Min Temperature 30 °F 46 °F 30 °F (2006)
Degree Days  
Heating Degree Days 25    
Moisture  
Dew Point 33 °F    
Average Humidity 80    
Maximum Humidity 100    
Minimum Humidity 50    
Precipitation  
Precipitation 0.00 in - - ()
Sea Level Pressure  
Sea Level Pressure 30.13 in    
Wind  
Wind Speed 1 mph (WNW)    
Max Wind Speed 8 mph    
Max Gust Speed -    
Visibility 10 miles    
Events      
Averages and records for this station are not official NWS values.
T = Trace of Precipitation, MM = Missing Value Source: NWS Daily Summary

Daily Weather History Graph

Daily Weather History Graph

Search for Another Location

Airport:

Trip Planner

Search our weather history database for the weather conditions in past years. The results will help you decide how hot, cold, wet, or windy it might be!

Date:

Astronomy

Oct. 23, 2013 Rise Set
Actual Time 7:35 AM CDT 6:26 PM CDT
Civil Twilight 7:08 AM CDT 6:54 PM CDT
Nautical Twilight 6:36 AM CDT 7:25 PM CDT
Astronomical Twilight 6:05 AM CDT 7:56 PM CDT
Moon 9:59 PM CDT (10/23) 11:52 AM CDT (10/23)
Length of Visible Light 11h 45m
Length of Day
10h 51m
Waning Gibbous, 79% of the Moon is Illuminated
Oct 23
Waning Gibbous
Oct 26
Last Quarter
Nov 3
New
Nov 9
First Quarter
Nov 17
Full

Hourly Weather History & Observations

Time (CDT) Temp. Windchill Dew Point Humidity Pressure Visibility Wind Dir Wind Speed Gust Speed Precip Events Conditions
12:15 AM 33.8 °F - 33.8 °F 100% 30.11 in 10.0 mi Calm Calm - N/A   Clear
12:35 AM 33.8 °F - 33.8 °F 100% 30.11 in 10.0 mi Calm Calm - N/A   Clear
12:55 AM 33.8 °F - 33.8 °F 100% 30.11 in 10.0 mi Calm Calm - N/A   Clear
1:15 AM 32.0 °F - 32.0 °F 100% 30.11 in 10.0 mi Calm Calm - N/A   Clear
1:35 AM 32.0 °F - 32.0 °F 100% 30.11 in 10.0 mi Calm Calm - N/A   Clear
1:55 AM 32.0 °F - 32.0 °F 100% 30.12 in 10.0 mi Calm Calm - N/A   Clear
2:15 AM 32.0 °F - 32.0 °F 100% 30.11 in 10.0 mi Calm Calm - N/A   Clear
2:35 AM 32.0 °F 27.5 °F 32.0 °F 100% 30.12 in 10.0 mi NW 4.6 mph - N/A   Clear
2:55 AM 32.0 °F - 32.0 °F 100% 30.12 in 10.0 mi Calm Calm - N/A   Mostly Cloudy
3:15 AM 32.0 °F - 32.0 °F 100% 30.12 in 10.0 mi Calm Calm - N/A   Unknown
3:35 AM 32.0 °F - 32.0 °F 100% 30.12 in 10.0 mi Calm Calm - N/A   Unknown
3:55 AM 32.0 °F - 32.0 °F 100% 30.11 in 10.0 mi Calm Calm - N/A   Clear
4:15 AM 32.0 °F - 32.0 °F 100% 30.12 in 10.0 mi Calm Calm - N/A   Clear
4:35 AM 32.0 °F - 32.0 °F 100% 30.12 in 10.0 mi Calm Calm - N/A   Clear
4:55 AM 32.0 °F - 32.0 °F 100% 30.13 in 10.0 mi Calm Calm - N/A   Clear
5:15 AM 32.0 °F - 32.0 °F 100% 30.13 in 10.0 mi Calm Calm - N/A   Clear
5:35 AM 30.2 °F - 30.2 °F 100% 30.14 in 10.0 mi Calm Calm - N/A   Clear
5:55 AM 30.2 °F - 30.2 °F 100% 30.14 in 10.0 mi Calm Calm - N/A   Clear
6:15 AM 30.2 °F - 30.2 °F 100% 30.15 in 10.0 mi Calm Calm - N/A   Unknown
6:35 AM 30.2 °F - 30.2 °F 100% 30.16 in 10.0 mi Calm Calm - N/A   Clear
6:55 AM 30.2 °F - 30.2 °F 100% 30.15 in 10.0 mi Calm Calm - N/A   Clear
7:15 AM 30.2 °F - 30.2 °F 100% 30.15 in 10.0 mi Calm Calm - N/A   Clear
7:35 AM 30.2 °F - 30.2 °F 100% 30.16 in 7.0 mi Calm Calm - N/A   Clear
7:55 AM 30.2 °F - 30.2 °F 100% 30.16 in 10.0 mi Calm Calm - N/A   Clear
8:15 AM 30.2 °F - 30.2 °F 100% 30.17 in 10.0 mi Calm Calm - N/A   Clear
8:35 AM 30.2 °F - 30.2 °F 100% 30.17 in 10.0 mi Calm Calm - N/A   Clear
8:55 AM 32.0 °F - 32.0 °F 100% 30.17 in 10.0 mi Calm Calm - N/A   Clear
9:15 AM 33.8 °F - 32.0 °F 93% 30.17 in 10.0 mi Calm Calm - N/A   Clear
9:35 AM 35.6 °F - 33.8 °F 93% 30.18 in 10.0 mi Calm Calm - N/A   Clear
9:55 AM 37.4 °F - 33.8 °F 87% 30.18 in 10.0 mi Calm Calm - N/A   Clear
10:15 AM 39.2 °F - 33.8 °F 81% 30.18 in 10.0 mi Calm Calm - N/A   Clear
10:35 AM 42.8 °F - 33.8 °F 70% 30.17 in 10.0 mi Calm Calm - N/A   Clear
10:55 AM 42.8 °F 39.3 °F 32.0 °F 66% 30.18 in 10.0 mi WSW 5.8 mph - N/A   Scattered Clouds
11:15 AM 42.8 °F 40.1 °F 32.0 °F 66% 30.17 in 10.0 mi WSW 4.6 mph - N/A   Scattered Clouds
11:35 AM 44.6 °F - 32.0 °F 61% 30.17 in 10.0 mi Calm Calm - N/A   Scattered Clouds
11:55 AM 44.6 °F 43.1 °F 32.0 °F 61% 30.16 in 10.0 mi SW 3.5 mph - N/A   Scattered Clouds
12:15 PM 44.6 °F 41.4 °F 32.0 °F 61% 30.16 in 10.0 mi West 5.8 mph - N/A   Mostly Cloudy
12:35 PM 46.4 °F 42.9 °F 32.0 °F 57% 30.15 in 10.0 mi NW 6.9 mph - N/A   Mostly Cloudy
12:55 PM 46.4 °F - 32.0 °F 57% 30.14 in 10.0 mi Calm Calm - N/A   Mostly Cloudy
1:15 PM 46.4 °F 43.5 °F 32.0 °F 57% 30.13 in 10.0 mi West 5.8 mph - N/A   Scattered Clouds
1:35 PM 46.4 °F - 32.0 °F 57% 30.11 in 10.0 mi Calm Calm - N/A   Clear
1:55 PM 46.4 °F - 32.0 °F 57% 30.09 in 10.0 mi Calm Calm - N/A   Clear
2:15 PM 46.4 °F 43.5 °F 32.0 °F 57% 30.09 in 10.0 mi South 5.8 mph - N/A   Scattered Clouds
2:35 PM 46.4 °F 44.3 °F 32.0 °F 57% 30.07 in 10.0 mi South 4.6 mph - N/A   Mostly Cloudy
2:55 PM 46.4 °F 44.3 °F 32.0 °F 57% 30.06 in 10.0 mi SSW 4.6 mph - N/A   Mostly Cloudy
3:15 PM 48.2 °F - 32.0 °F 54% 30.06 in 10.0 mi Calm Calm - N/A   Mostly Cloudy
3:35 PM 48.2 °F - 32.0 °F 54% 30.06 in 10.0 mi Calm Calm - N/A   Unknown
3:55 PM 48.2 °F - 32.0 °F 54% 30.06 in 10.0 mi Calm Calm - N/A   Overcast
4:15 PM 50.0 °F - 32.0 °F 50% 30.07 in 10.0 mi Calm Calm - N/A   Unknown
4:35 PM 50.0 °F - 32.0 °F 50% 30.05 in 10.0 mi Calm Calm - N/A   Mostly Cloudy
4:55 PM 50.0 °F - 32.0 °F 50% 30.06 in 10.0 mi ENE 4.6 mph - N/A   Mostly Cloudy
5:15 PM 50.0 °F - 32.0 °F 50% 30.07 in 10.0 mi Calm Calm - N/A   Overcast
5:35 PM 50.0 °F - 32.0 °F 50% 30.09 in 10.0 mi North 5.8 mph - N/A   Overcast
5:55 PM 48.2 °F - 33.8 °F 58% 30.10 in 10.0 mi North 4.6 mph - N/A   Overcast
6:15 PM 48.2 °F - 33.8 °F 58% 30.10 in 10.0 mi Calm Calm - N/A   Overcast
6:35 PM 46.4 °F - 33.8 °F 62% 30.10 in 10.0 mi Calm Calm - N/A   Overcast
6:55 PM 46.4 °F - 33.8 °F 62% 30.10 in 10.0 mi Calm Calm - N/A   Overcast
7:15 PM 46.4 °F 45.2 °F 33.8 °F 62% 30.09 in 10.0 mi SE 3.5 mph - N/A   Mostly Cloudy
7:35 PM 44.6 °F - 35.6 °F 71% 30.10 in 10.0 mi Calm Calm - N/A   Scattered Clouds
7:55 PM 44.6 °F 43.1 °F 35.6 °F 71% 30.10 in 5.0 mi East 3.5 mph - N/A   Haze
8:15 PM 42.8 °F - 35.6 °F 76% 30.10 in 5.0 mi Calm Calm - N/A   Haze
8:35 PM 42.8 °F - 35.6 °F 76% 30.10 in 5.0 mi Calm Calm - N/A   Haze
8:55 PM 42.8 °F - 35.6 °F 76% 30.11 in 4.0 mi Calm Calm - N/A   Haze
9:15 PM 41.0 °F 38.0 °F 35.6 °F 81% 30.12 in 10.0 mi NE 4.6 mph - N/A   Mostly Cloudy
9:35 PM 42.8 °F - 35.6 °F 76% 30.13 in 10.0 mi Calm Calm - N/A   Overcast
9:55 PM 42.8 °F 40.1 °F 35.6 °F 76% 30.13 in 10.0 mi East 4.6 mph - N/A   Overcast
10:15 PM 41.0 °F - 35.6 °F 81% 30.14 in 10.0 mi Calm Calm - N/A   Mostly Cloudy
10:35 PM 41.0 °F - 35.6 °F 81% 30.14 in 10.0 mi Calm Calm - N/A   Scattered Clouds
10:55 PM 37.4 °F - 35.6 °F 93% 30.15 in 10.0 mi Calm Calm - N/A   Clear
11:15 PM 37.4 °F - 37.4 °F 100% 30.16 in 10.0 mi Calm Calm - N/A   Clear
11:35 PM 35.6 °F 29.2 °F 35.6 °F 100% 30.18 in 10.0 mi North 8.1 mph - N/A   Clear
11:55 PM 35.6 °F 31.7 °F 35.6 °F 100% 30.19 in 10.0 mi NNW 4.6 mph - N/A   Scattered Clouds